Weather reports worldwide

Advertisment
Leeming, United Kingdom (3257): temperature & dewpoint: 13.02.2019 13:00:00 - 19.02.2019 13:00:00 (GMT)Leeming, United Kingdom (3257): temperature -20cm & temperature -100cm: 13.02.2019 13:00:00 - 19.02.2019 13:00:00 (GMT)Leeming, United Kingdom (3257): wind speed & gusts: 13.02.2019 13:00:00 - 19.02.2019 13:00:00 (GMT)Leeming, United Kingdom (3257): wind direction: 13.02.2019 13:00:00 - 19.02.2019 13:00:00 (GMT)Leeming, United Kingdom (3257): reduced air pressure: 13.02.2019 13:00:00 - 19.02.2019 13:00:00 (GMT)Leeming, United Kingdom (3257): visibility: 13.02.2019 13:00:00 - 19.02.2019 13:00:00 (GMT)Leeming, United Kingdom (3257): sunshine duration: 13.02.2019 13:00:00 - 19.02.2019 13:00:00 (GMT)Leeming, United Kingdom (3257): precipitation: 13.02.2019 13:00:00 - 19.02.2019 13:00:00 (GMT)
Date & Time tt [°C] td [°C] tt -20cm [°C] tt -100cm [°C] ff [km/h] ff [kn] fx [km/h] fx [kn] dd ppp [hPa] vv [km] sd [min] rr [mm]
19.02.2019 13:00:00 9,0 3,2 - - 21 11 - - SW 1014,7 10 6 0,0
19.02.2019 12:00:00 9,4 3,7 - - 21 11 - - SW 1014,6 10 24 0,0
19.02.2019 11:00:00 8,4 3,3 - - 28 15 - - WSW 1014,2 10 36 0,0
19.02.2019 10:00:00 9,2 4,8 - - 18 10 - - WSW 1013,9 10 60 0,0
19.02.2019 09:00:00 7,5 4,1 5,9 6,0 16 9 - - WSW 1013,5 10 60 0,0
19.02.2019 08:00:00 6,1 3,5 - - 13 7 - - WSW 1013,1 35 6 0,0
19.02.2019 07:00:00 6,0 3,0 - - 9 5 - - SW 1012,3 10 0 0,0
19.02.2019 06:00:00 5,8 2,9 - - 8 4 - - WSW 1011,8 35 0 0,0
19.02.2019 05:00:00 7,1 3,9 - - 2 1 - - WNW 1011,4 40 0 0,0
19.02.2019 04:00:00 6,5 4,1 - - 8 4 - - W 1010,9 35 0 0,0
19.02.2019 03:00:00 7,4 4,5 - - 13 7 - - W 1010,4 45 0 0,0
19.02.2019 02:00:00 7,7 4,7 - - 18 10 - - WSW 1009,9 10 0 0,0
19.02.2019 01:00:00 8,2 5,2 - - 26 14 - - WSW 1009,6 30 0 0,0
19.02.2019 00:00:00 8,3 4,8 - - 21 11 - - WSW 1009,4 26 - 0,0
18.02.2019 23:00:00 7,8 4,8 - - 18 10 - - WSW 1009,1 35 0 0,0
18.02.2019 22:00:00 8,3 5,0 - - 24 13 - - SW 1008,9 26 0 0,0
18.02.2019 21:00:00 7,5 4,9 - - 22 12 - - SSW 1008,8 10 0 0,0
18.02.2019 20:00:00 7,5 4,5 - - 24 13 - - SSW 1008,6 19 0 0,0
18.02.2019 19:00:00 8,1 3,7 - - 18 10 48 26 SSW 1008,7 45 0 0,0
18.02.2019 18:00:00 8,0 4,0 - - 22 12 48 26 SW 1008,0 10 0 0,0
18.02.2019 17:00:00 7,9 4,0 - - 28 15 46 25 SW 1007,8 30 6 0,0
18.02.2019 16:00:00 8,6 4,4 - - 28 15 59 32 SSW 1007,4 10 42 0,2
18.02.2019 15:00:00 10,2 2,4 - - 29 16 50 27 SSW 1007,0 10 54 0,0
18.02.2019 14:00:00 10,2 2,8 - - 28 15 46 25 SSW 1007,9 10 36 0,0
18.02.2019 13:00:00 10,1 2,4 - - 28 15 50 27 SW 1008,2 10 24 0,0
18.02.2019 12:00:00 10,3 4,6 - - 24 13 46 25 SSW 1008,5 10 30 0,0
18.02.2019 11:00:00 8,7 5,2 - - 16 9 - - SSW 1008,8 25 0 0,0
18.02.2019 10:00:00 9,1 4,7 - - 8 4 - - SW 1008,9 10 0 0,0
18.02.2019 09:00:00 8,3 4,5 5,7 5,9 11 6 - - ESE 1009,0 10 0 0,0
18.02.2019 08:00:00 8,0 4,3 - - 24 13 - - S 1008,8 10 0 0,0
18.02.2019 07:00:00 8,0 4,3 - - 28 15 - - S 1008,5 10 0 0,0
18.02.2019 06:00:00 7,8 4,6 - - 24 13 - - S 1009,1 10 0 0,0
18.02.2019 05:00:00 7,3 4,5 - - 15 8 - - S 1009,3 22 0 0,0
18.02.2019 04:00:00 7,9 4,4 - - 9 5 - - S 1009,6 18 0 0,0
18.02.2019 03:00:00 8,0 4,2 - - 18 10 - - S 1009,5 18 0 0,0
18.02.2019 02:00:00 8,6 4,3 - - 15 8 - - S 1009,8 18 0 0,0
18.02.2019 01:00:00 6,9 3,3 - - 4 2 - - E 1009,9 19 0 0,0
18.02.2019 00:00:00 7,9 3,5 - - 11 6 - - SE 1009,9 19 - 0,0
17.02.2019 23:00:00 8,4 2,9 - - 24 13 - - SE 1009,6 27 0 0,0
17.02.2019 22:00:00 8,0 2,9 - - 16 9 - - SSE 1010,3 27 0 0,0
17.02.2019 21:00:00 7,7 3,8 - - 15 8 - - S 1010,1 25 0 0,0
17.02.2019 20:00:00 8,3 4,1 - - 18 10 - - S 1009,7 30 0 0,0
17.02.2019 19:00:00 9,6 5,0 - - 26 14 - - S 1009,1 30 0 0,0
17.02.2019 18:00:00 9,8 5,8 - - 21 11 - - S 1008,9 27 0 0,0
17.02.2019 17:00:00 11,2 5,9 - - 24 13 - - S 1008,4 30 0 0,0
17.02.2019 16:00:00 12,0 6,3 - - 22 12 - - S 1008,3 27 12 0,0
17.02.2019 15:00:00 13,3 6,8 - - 29 16 - - SSW 1008,4 28 12 0,0
17.02.2019 14:00:00 12,7 6,9 - - 22 12 - - SSW 1008,2 25 18 0,0
17.02.2019 13:00:00 10,6 6,7 - - 16 9 - - SSE 1008,7 12 0 0,0
17.02.2019 12:00:00 9,8 6,7 - - 18 10 - - SE 1009,2 10 12 0,0
17.02.2019 11:00:00 8,5 6,6 - - 26 14 - - SSE 1009,3 9 0 -
17.02.2019 10:00:00 7,8 6,6 - - 26 14 - - SSE 1009,5 7 0 0,0
17.02.2019 09:00:00 7,5 6,7 5,7 5,7 24 13 - - SSE 1010,0 5 0 0,0
17.02.2019 08:00:00 7,1 6,6 - - 16 9 - - SSE 1010,8 8 0 0,0
17.02.2019 07:00:00 6,8 6,1 - - 16 9 - - SSE 1011,4 8 0 0,0
17.02.2019 06:00:00 7,0 6,1 - - 16 9 - - SE 1012,0 9 0 0,0
17.02.2019 05:00:00 8,0 6,7 - - 21 11 - - SE 1012,3 13 0 0,0
17.02.2019 04:00:00 7,5 6,2 - - 16 9 - - SE 1012,8 11 0 0,0
17.02.2019 03:00:00 9,0 7,0 - - 22 12 - - SE 1013,3 14 0 0,0
17.02.2019 02:00:00 9,2 7,6 - - 21 11 - - SE 1013,9 14 0 0,0
17.02.2019 01:00:00 9,8 8,1 - - 11 6 - - SSE 1014,2 13 0 0,0
17.02.2019 00:00:00 10,3 8,5 - - 22 12 - - SSE 1014,5 12 - 0,0
16.02.2019 23:00:00 10,7 8,2 - - 15 8 - - SE 1014,9 16 0 0,0
16.02.2019 22:00:00 11,1 7,8 - - 22 12 - - SE 1015,5 24 0 0,0
16.02.2019 21:00:00 10,6 7,1 - - 9 5 - - SSE 1015,9 10 0 0,0
16.02.2019 20:00:00 10,3 6,1 - - 9 5 - - SE 1016,1 19 0 0,0
16.02.2019 19:00:00 11,1 5,9 - - 13 7 - - SSE 1016,4 10 0 0,0
16.02.2019 18:00:00 10,7 5,2 - - 11 6 - - SE 1016,4 30 0 0,0
16.02.2019 17:00:00 11,3 4,9 - - 15 8 - - S 1016,5 35 24 0,0
16.02.2019 16:00:00 11,3 4,8 - - 21 11 - - S 1016,8 30 36 0,0
16.02.2019 15:00:00 12,2 4,2 - - 24 13 - - SSW 1017,2 30 54 0,0
16.02.2019 14:00:00 12,7 4,5 - - 29 16 - - SW 1017,6 35 36 0,0
16.02.2019 13:00:00 12,6 5,2 - - 22 12 - - SSW 1018,4 35 48 0,0
16.02.2019 12:00:00 10,7 4,0 - - 24 13 - - SSW 1018,5 35 24 0,0
16.02.2019 11:00:00 11,2 5,4 - - 21 11 - - S 1018,2 35 24 0,0
16.02.2019 10:00:00 10,4 5,5 - - 15 8 - - S 1018,1 35 48 0,0
16.02.2019 09:00:00 9,6 5,2 5,0 5,7 21 11 - - S 1018,4 24 30 0,0
16.02.2019 08:00:00 8,8 4,3 - - 15 8 - - S 1017,6 40 0 0,0
16.02.2019 07:00:00 9,4 4,9 - - 21 11 - - SSW 1017,1 30 0 0,0
16.02.2019 06:00:00 9,0 5,0 - - 28 15 50 27 SSW 1016,7 10 0 0,0
16.02.2019 05:00:00 8,6 5,1 - - 21 11 - - SSW 1016,7 18 0 0,0
16.02.2019 04:00:00 9,1 6,0 - - 11 6 - - WSW 1016,5 26 0 0,0
16.02.2019 03:00:00 8,0 5,2 - - 11 6 - - ESE 1016,3 15 0 0,0
16.02.2019 02:00:00 7,7 4,7 - - 15 8 - - ESE 1016,4 14 0 0,0
16.02.2019 01:00:00 6,7 4,2 - - 18 10 - - SE 1016,6 12 0 0,0
16.02.2019 00:00:00 6,5 3,7 - - 21 11 - - SSE 1017,0 14 - 0,0
15.02.2019 23:00:00 6,4 3,6 - - 13 7 - - SSE 1017,6 13 0 0,0
15.02.2019 22:00:00 6,1 3,4 - - 13 7 - - SE 1018,1 11 0 0,0
15.02.2019 21:00:00 7,1 3,4 - - 13 7 - - SE 1018,7 10 0 0,0
15.02.2019 20:00:00 7,3 3,5 - - 15 8 - - SSE 1019,1 10 0 0,0
15.02.2019 19:00:00 8,9 4,1 - - 24 13 - - SSE 1019,3 13 0 0,0
15.02.2019 18:00:00 10,1 3,6 - - 22 12 - - SSE 1019,4 16 0 0,0
15.02.2019 17:00:00 11,4 4,9 - - 15 8 - - SE 1019,7 14 48 0,0
15.02.2019 16:00:00 11,7 5,7 - - 18 10 - - SSE 1020,1 10 60 0,0
15.02.2019 15:00:00 10,8 5,4 - - 22 12 - - SSE 1020,6 10 60 0,0
15.02.2019 14:00:00 10,3 3,8 - - 16 9 - - SE 1021,7 10 60 0,0
15.02.2019 13:00:00 8,9 4,2 - - 18 10 - - SSE 1022,4 10 60 0,0
15.02.2019 12:00:00 6,6 3,0 - - 22 12 - - SSE 1023,3 18 60 0,0
15.02.2019 11:00:00 5,8 3,1 - - 18 10 - - SSE 1023,5 10 60 0,0
15.02.2019 10:00:00 3,2 1,6 - - 18 10 - - SSE 1024,3 10 60 0,0
15.02.2019 09:00:00 1,4 0,5 5,0 5,7 18 10 - - SSE 1024,6 10 54 0,0
15.02.2019 08:00:00 1,0 0,4 - - 18 10 - - SSE 1024,8 7 0 0,0
15.02.2019 07:00:00 1,2 0,7 - - 21 11 - - SE 1025,0 6 0 0,0
15.02.2019 06:00:00 1,1 0,7 - - 21 11 - - SE 1025,4 4,1 0 0,0
15.02.2019 05:00:00 1,4 0,9 - - 18 10 - - SE 1025,5 4,1 0 0,0
15.02.2019 04:00:00 1,8 1,2 - - 13 7 - - SSE 1025,7 4,4 0 0,0
15.02.2019 03:00:00 2,2 1,5 - - 15 8 - - SE 1026,2 5 0 0,0
15.02.2019 02:00:00 1,3 0,1 - - 11 6 - - S 1026,7 4,7 0 0,0
15.02.2019 01:00:00 2,5 1,3 - - 11 6 - - SSE 1027,2 6 0 0,0
15.02.2019 00:00:00 3,6 2,0 - - 11 6 - - SSE 1027,6 7 - 0,0
14.02.2019 23:00:00 3,1 0,6 - - 9 5 - - SSE 1027,8 7 0 0,0
14.02.2019 22:00:00 3,8 1,6 - - 13 7 - - SSE 1027,8 8 0 0,0
14.02.2019 21:00:00 5,3 2,8 - - 13 7 - - SSE 1028,0 10 0 0,0
14.02.2019 20:00:00 6,5 3,4 - - 15 8 - - SSE 1028,1 11 0 0,0
14.02.2019 19:00:00 7,1 4,0 - - 15 8 - - SSE 1028,2 10 0 0,0
14.02.2019 18:00:00 7,8 4,4 - - 11 6 - - SSE 1028,2 10 0 0,0
14.02.2019 17:00:00 9,2 4,6 - - 13 7 - - SSE 1028,1 10 0 0,0
14.02.2019 16:00:00 10,5 4,5 - - 13 7 - - SSE 1028,2 10 24 0,0
14.02.2019 15:00:00 10,9 4,6 - - 15 8 - - SSE 1028,4 10 60 0,0
14.02.2019 14:00:00 10,1 5,0 - - 22 12 - - SSE 1028,7 10 60 0,0
14.02.2019 13:00:00 10,0 4,8 - - 22 12 - - SE 1029,2 10 42 0,0
14.02.2019 12:00:00 8,8 4,8 - - 21 11 - - SSE 1029,9 10 36 0,0
14.02.2019 11:00:00 6,9 4,3 - - 22 12 - - SE 1030,2 10 60 0,0
14.02.2019 10:00:00 6,0 3,3 - - 16 9 - - SE 1030,4 10 60 0,0
14.02.2019 09:00:00 5,7 3,7 5,0 5,7 18 10 - - S 1030,1 10 36 0,0
14.02.2019 08:00:00 4,6 3,2 - - 15 8 - - SSE 1030,0 12 0 0,0
14.02.2019 07:00:00 4,9 3,0 - - 15 8 - - SE 1029,7 10 0 0,0
14.02.2019 06:00:00 6,1 3,8 - - 18 10 - - SSE 1029,3 14 0 0,0
14.02.2019 05:00:00 7,7 4,2 - - 9 5 - - ESE 1029,1 17 0 0,0
14.02.2019 04:00:00 7,3 3,8 - - 11 6 - - SSE 1028,9 16 0 0,0
14.02.2019 03:00:00 7,4 3,9 - - 15 8 - - SSW 1028,5 20 0 0,0
14.02.2019 02:00:00 7,1 3,7 - - 8 4 - - S 1028,5 21 0 0,0
14.02.2019 01:00:00 8,1 4,3 - - 22 12 - - SW 1027,9 23 0 0,0
14.02.2019 00:00:00 7,9 4,3 - - 8 4 - - SE 1027,9 18 - 0,0
13.02.2019 23:00:00 7,4 4,3 - - 5 3 - - WSW 1027,9 20 0 0,0
13.02.2019 22:00:00 8,1 4,6 - - 15 8 - - SE 1027,6 19 0 0,0
13.02.2019 21:00:00 7,9 4,2 - - 13 7 - - SSE 1027,5 10 0 0,0
13.02.2019 20:00:00 8,1 4,7 - - 13 7 - - S 1027,5 28 0 0,0
13.02.2019 19:00:00 7,9 4,1 - - 13 7 - - S 1027,8 10 0 0,0
13.02.2019 18:00:00 9,1 4,5 - - 11 6 - - SSE 1027,7 10 0 0,0
13.02.2019 17:00:00 9,1 5,0 - - 18 10 - - SSW 1027,4 10 0 0,0
13.02.2019 16:00:00 10,2 5,2 - - 21 11 - - WSW 1027,8 10 0 0,0
13.02.2019 15:00:00 9,7 5,2 - - 15 8 - - SW 1027,8 10 0 0,0
13.02.2019 14:00:00 10,0 4,8 - - 22 12 - - SW 1028,2 35 0 0,0
13.02.2019 13:00:00 10,1 5,3 - - 21 11 - - SSW 1028,1 10 0 0,0

tt = temperature
td = dewpoint
tt -20cm = temperature -20cm
tt -100cm = temperature -100cm
ff = wind speed
fx = gusts
dd = wind direction
ppp = reduced air pressure
vv = visibility
sd = sunshine duration
rr = precipitation

Next stations